Theta_e
348 356 355 357 357 356 356 355 354 354 353 353 354 354 354 355 355 355 355 355 355 355 354 354 353 353 352 352 352 352 352 352 351 352 352 352 352 351 351 351 350 350 350 351 351 351 351 351 352 352 351 352 352 352 351 350 350 350 350 350 350 350 350 350 349 348 348 347 347 348 348 348 347 346 346 347 348 348 347 347 344 339 339 341 342
348 355 356 358 357 356 355 355 354 354 353 353 354 353 353 354 354 354 355 354 355 355 354 353 353 352 352 351 352 352 352 351 351 352 351 351 351 351 350 351 350 350 350 350 350 350 351 351 351 351 351 351 352 353 352 351 350 351 350 349 349 349 349 349 348 348 348 347 347 347 347 347 347 347 346 346 347 347 347 346 345 341 340 343 342
354 356 356 357 357 356 356 355 354 353 353 353 353 353 352 353 353 352 353 352 353 354 354 353 352 352 351 352 352 352 351 352 352 352 351 351 351 351 351 351 349 350 350 350 350 350 351 351 351 352 352 352 352 352 352 351 351 350 351 351 350 349 348 348 347 346 347 348 349 349 348 347 347 346 347 347 346 345 345 346 345 343 341 343 342
354 354 355 357 357 356 355 355 354 352 353 353 353 352 351 351 351 351 351 352 352 352 352 352 351 352 352 352 351 351 352 352 352 351 351 350 350 351 350 349 349 350 350 350 351 351 351 352 352 352 353 353 352 352 352 351 351 350 349 349 349 349 349 349 348 347 346 346 348 348 346 346 345 346 347 346 346 346 345 345 344 345 344 343 343
353 353 354 357 357 356 355 354 353 353 353 353 352 352 352 351 351 350 350 350 351 351 351 351 351 351 352 351 351 353 352 352 352 351 350 351 352 350 350 349 349 349 350 350 350 351 351 351 353 352 352 352 352 350 350 350 350 350 350 349 348 348 348 348 348 347 347 349 349 349 342 343 346 346 346 347 346 346 345 345 345 346 345 345 344
352 354 355 355 354 356 355 354 353 353 353 353 352 351 351 351 351 350 350 349 350 351 350 351 352 352 351 350 351 353 353 352 351 350 349 350 351 350 349 349 349 349 350 349 350 350 350 351 352 351 351 351 352 351 351 349 349 349 348 350 349 348 347 346 346 346 347 348 350 350 340 342 345 345 347 347 347 346 346 345 345 344 344 344 343
353 355 354 353 353 355 355 354 353 353 353 353 351 351 351 351 351 350 350 349 348 349 349 349 351 351 350 349 350 353 353 352 351 349 348 348 350 349 348 348 348 349 349 349 349 349 350 351 350 350 350 351 351 351 350 350 349 349 350 349 350 349 347 347 346 346 346 348 346 344 341 340 343 346 347 347 347 346 345 345 345 344 344 344 343
354 353 353 352 352 355 355 354 354 353 353 352 351 351 351 351 350 350 349 349 347 347 348 348 348 348 349 349 350 352 352 352 350 349 348 348 350 350 348 348 347 348 349 349 348 350 350 350 349 349 350 351 351 351 351 351 351 350 350 350 349 350 349 348 347 350 349 349 344 345 344 341 342 344 347 347 346 346 345 346 345 345 345 345 344
352 351 352 352 353 355 354 354 353 353 353 352 351 351 351 350 350 350 349 348 347 346 346 347 346 346 348 348 349 352 352 351 350 349 349 348 349 351 350 347 347 347 348 348 348 348 350 348 348 349 351 351 351 351 352 351 352 352 350 351 351 350 349 349 348 348 350 349 343 346 345 342 342 344 347 346 347 346 346 345 347 345 345 344 343
351 351 352 353 356 356 354 354 353 353 353 351 351 350 350 350 350 349 348 348 347 346 345 345 345 345 347 347 346 350 351 351 350 349 348 348 348 349 349 348 346 346 347 346 348 349 348 347 349 349 350 350 351 351 351 351 350 352 352 352 351 351 351 350 349 348 348 343 341 341 345 346 343 344 346 347 347 348 347 347 347 346 345 344 344
351 352 352 353 355 354 353 353 354 353 353 351 351 350 349 350 350 349 349 348 347 346 344 344 345 345 346 346 345 350 351 350 350 348 348 348 348 348 347 348 348 347 346 346 347 348 347 348 349 350 349 350 351 351 351 350 350 350 352 352 352 351 350 351 352 347 344 345 346 345 344 348 345 347 347 346 347 347 346 346 346 346 345 345 345
349 353 354 354 356 354 353 353 354 354 352 351 351 350 350 350 351 350 348 348 348 347 344 344 345 345 345 345 345 346 347 349 349 348 348 348 348 347 347 347 347 347 346 345 346 348 347 348 349 349 349 350 351 351 351 350 350 351 352 353 351 352 351 351 351 348 343 343 344 344 341 342 345 346 346 347 346 347 346 345 345 345 345 344 344
351 352 355 357 355 354 353 353 354 354 353 351 350 350 350 351 351 350 349 348 348 348 346 345 345 345 345 345 345 347 347 348 349 347 348 347 347 348 347 347 346 346 346 347 347 348 347 347 347 347 349 351 351 351 350 350 351 352 352 352 353 350 352 351 350 346 346 345 345 344 342 346 347 347 347 347 347 346 346 346 345 345 345 344 344
350 352 356 355 353 355 353 353 353 354 353 350 350 350 350 351 351 351 349 348 348 348 347 346 345 345 345 345 346 347 348 349 349 349 347 347 347 347 347 347 346 346 346 347 347 347 346 346 346 348 349 350 350 349 350 350 351 352 353 352 352 351 352 352 351 343 342 343 345 344 344 347 347 347 346 347 346 346 346 345 345 344 344 344 344
350 351 353 353 353 353 353 353 354 354 353 352 351 351 351 351 351 351 349 348 348 348 347 346 345 345 346 346 347 348 349 349 350 348 347 348 348 347 347 347 347 347 346 346 347 346 345 345 345 346 348 350 349 349 349 349 349 349 350 350 351 352 350 347 346 347 341 343 345 343 344 347 347 347 347 346 346 346 345 345 344 344 343 343 343
350 352 352 353 353 353 353 354 354 353 353 352 351 351 352 352 352 351 350 349 349 348 347 346 345 346 347 348 348 349 351 350 349 348 348 348 348 347 347 347 347 346 346 347 347 345 344 345 345 347 348 349 349 348 348 348 348 348 347 347 347 347 347 347 347 346 347 344 344 345 345 348 346 346 346 346 346 346 345 345 344 343 343 342 342
349 352 351 351 351 351 351 352 353 354 353 352 351 351 352 352 352 351 351 350 349 348 347 347 347 348 348 348 349 350 352 350 349 349 349 349 348 348 347 347 346 346 346 347 346 344 345 344 345 347 347 348 349 348 347 347 346 345 345 344 345 346 348 351 347 343 344 345 344 344 345 346 347 346 346 346 346 345 345 344 344 343 343 342 342
348 349 348 349 350 350 351 350 352 353 353 353 351 351 352 353 353 352 351 350 349 349 348 348 348 347 347 348 348 350 350 350 350 349 349 348 347 348 347 346 346 346 346 346 346 345 344 346 346 346 347 348 348 348 348 347 347 347 345 347 345 348 350 348 346 349 345 346 346 346 346 347 346 346 346 345 345 345 344 344 343 343 342 341 341
346 349 348 348 349 349 349 349 350 349 352 353 352 352 352 353 353 352 351 351 349 349 348 348 347 347 347 347 348 349 349 350 350 349 349 348 347 347 346 346 345 345 345 346 345 345 345 345 346 345 347 348 349 348 349 348 348 346 346 345 345 347 348 348 343 347 347 347 347 346 347 346 346 345 345 345 344 345 344 343 342 342 342 341 340
345 349 348 347 349 349 348 349 347 348 352 353 353 352 353 352 353 352 352 351 349 349 349 348 348 347 347 347 348 349 349 350 349 349 349 348 347 346 346 346 345 345 345 346 345 344 345 345 345 345 346 348 348 348 348 348 346 347 346 347 348 348 351 349 343 349 346 348 346 347 346 346 345 345 345 345 344 344 343 342 341 341 340 340 339
346 349 347 347 348 349 348 349 349 349 350 354 354 353 353 352 351 351 351 351 351 350 349 348 348 347 346 346 347 347 348 349 348 348 348 348 347 346 346 345 345 344 344 345 345 344 344 345 345 345 344 347 348 348 348 348 348 347 347 347 349 349 349 344 345 348 344 345 346 346 346 345 345 345 345 344 344 343 342 341 340 339 338 337 335
345 347 347 347 346 347 346 349 348 351 349 353 353 354 354 352 352 353 353 351 351 350 350 348 348 347 344 345 345 344 344 345 347 349 347 348 348 347 346 345 344 344 344 345 345 345 344 344 345 344 344 346 348 349 349 348 347 347 346 349 349 350 345 346 348 344 343 345 346 346 345 345 344 345 344 343 344 343 341 340 339 338 336 333 331
343 344 346 347 346 346 347 348 348 350 350 350 353 353 352 352 351 351 349 350 350 352 350 348 346 343 342 339 342 342 342 341 345 346 346 347 347 347 346 346 345 345 344 344 345 344 345 343 344 346 343 344 346 344 343 345 346 346 348 348 346 350 343 350 347 344 345 345 345 345 345 344 344 344 343 343 343 342 340 338 336 334 332 330 329
343 344 345 347 346 346 346 347 347 352 352 351 352 353 352 351 351 352 351 350 350 349 349 346 341 342 339 340 339 343 344 345 341 348 345 346 347 346 345 344 345 344 344 345 345 345 343 343 345 345 345 342 338 340 341 344 345 344 344 346 345 346 344 349 347 345 343 344 345 345 344 343 344 343 343 343 341 340 337 335 334 332 331 329 328
344 345 346 347 346 348 347 347 349 350 351 350 349 350 352 350 351 351 352 350 350 350 347 346 343 342 343 342 342 342 342 342 340 342 344 346 345 345 345 344 344 342 345 345 343 339 340 336 338 341 334 333 333 337 340 342 347 343 343 342 347 345 345 346 346 345 344 343 344 344 343 343 343 343 343 341 340 337 335 333 331 331 330 329 329
346 344 345 347 346 348 348 347 350 351 351 351 349 350 352 348 350 350 350 350 350 348 348 342 342 344 343 343 343 341 343 343 342 341 344 344 344 342 342 343 341 343 345 343 341 339 335 335 335 333 333 334 335 338 339 338 339 339 341 342 346 346 344 345 344 346 342 342 345 343 342 342 342 342 342 340 338 336 334 332 331 330 329 329 329
346 346 347 347 348 348 347 347 349 349 349 350 349 349 350 348 350 350 349 347 350 348 346 341 343 343 343 344 343 341 342 343 341 340 341 343 344 342 340 341 343 342 343 340 342 340 335 334 336 335 333 335 335 335 337 337 339 337 339 340 345 344 343 344 345 348 342 343 342 342 342 342 341 341 340 339 337 335 333 332 331 330 329 329 328
347 348 347 347 347 347 347 346 347 348 348 350 348 346 350 349 349 350 350 347 348 346 343 341 343 342 343 344 343 343 342 342 341 341 342 342 341 343 342 341 342 342 341 336 341 341 337 336 338 336 335 335 333 335 336 336 337 339 338 342 345 347 345 341 344 345 343 341 341 342 341 340 340 339 338 337 335 333 332 332 331 330 329 328 327
347 349 348 346 347 347 347 344 345 347 348 348 345 345 349 349 350 349 348 350 348 347 344 343 341 342 344 343 344 343 343 344 342 341 344 342 343 343 341 341 344 343 342 336 342 342 338 336 338 336 337 334 334 337 335 336 339 337 340 342 344 344 343 341 341 343 342 342 340 339 339 338 337 336 335 334 333 332 332 331 330 330 329 327 327
349 349 348 347 346 346 345 344 345 347 348 348 345 345 345 347 348 349 346 349 347 347 346 340 342 342 343 345 345 344 345 344 344 344 343 343 343 345 344 343 342 344 344 340 341 338 337 339 337 336 333 333 334 338 336 335 336 339 340 342 343 345 346 345 341 345 338 338 339 337 337 336 335 334 333 332 331 331 330 330 329 329 328 327 326
350 348 347 347 347 344 344 345 345 349 349 345 346 346 347 347 348 348 347 348 347 347 343 342 343 344 344 346 345 346 346 345 345 346 345 344 344 345 344 344 342 344 344 341 345 343 340 337 337 335 334 333 334 337 335 337 338 338 340 345 342 344 347 345 345 341 337 336 336 336 334 334 333 333 332 331 330 329 329 327 327 327 326 326 325
350 349 347 347 345 345 344 344 346 349 349 347 347 345 345 345 348 347 346 348 349 345 342 343 343 343 344 346 346 346 347 346 346 347 345 345 344 344 343 345 343 344 341 340 343 343 341 338 337 338 337 338 337 339 338 339 342 339 343 341 341 344 345 343 343 337 336 336 335 334 333 332 332 330 330 330 330 330 330 328 326 327 327 326 326
351 351 349 348 346 347 345 345 348 349 348 347 346 345 346 345 347 346 346 347 346 346 342 344 344 342 343 345 346 346 347 346 347 347 345 343 343 342 341 343 342 342 341 344 343 342 342 340 341 342 340 340 340 340 342 346 342 341 342 343 342 342 344 337 338 337 338 335 334 334 333 332 331 329 328 328 328 328 328 327 326 326 327 326 325
350 350 350 347 347 347 347 347 349 346 348 348 347 344 346 345 345 346 347 347 345 344 341 344 342 340 344 345 344 345 342 346 346 345 344 341 342 342 341 340 340 341 341 346 343 341 339 340 340 340 339 338 338 342 344 346 343 343 340 342 345 344 337 336 337 337 335 334 334 334 333 331 329 329 327 327 327 327 327 326 326 326 325 325 324
351 350 349 348 348 347 346 345 348 348 347 347 346 345 346 345 343 344 345 347 345 343 342 344 341 340 346 343 344 342 341 345 345 345 343 341 342 340 340 339 342 342 339 343 341 341 340 339 339 339 342 342 344 342 342 344 344 340 338 341 342 338 338 337 336 336 334 334 334 331 333 330 330 330 328 328 327 327 326 326 325 323 322 322 322
351 351 350 349 347 347 347 346 346 346 346 347 347 347 345 346 344 345 345 348 345 342 343 344 340 341 344 342 343 344 345 345 346 347 347 346 343 343 344 345 347 345 345 345 345 346 344 344 345 344 345 342 343 338 342 343 341 339 339 342 338 338 336 336 336 333 332 333 330 331 331 329 329 328 329 327 328 326 325 324 323 323 323 322 322
352 351 350 349 347 347 346 347 345 345 345 345 346 346 346 345 345 343 344 346 345 342 343 344 339 342 342 340 344 346 346 347 349 348 349 348 347 348 348 351 353 351 349 349 348 348 347 344 346 346 345 344 342 339 340 341 338 339 338 338 337 338 337 337 336 335 333 329 329 327 328 326 326 326 328 327 328 326 324 324 323 323 322 321 320
351 351 351 349 348 348 347 348 346 346 346 345 346 345 344 344 343 343 346 344 344 344 343 342 338 340 343 340 344 347 346 347 348 348 349 349 349 350 351 351 351 350 350 348 349 349 347 348 345 346 345 344 342 337 338 337 338 338 337 336 337 336 336 337 338 336 332 329 328 326 326 325 321 319 323 328 326 324 323 323 322 321 320 320 318
352 352 352 351 349 348 347 347 346 346 346 346 346 345 346 344 343 343 344 344 345 343 344 341 338 339 343 344 345 347 347 346 347 346 349 348 348 350 351 352 351 349 349 347 348 348 347 349 344 346 346 344 341 342 342 338 337 336 336 336 337 337 337 336 336 334 329 328 326 325 324 324 320 319 323 323 326 325 323 322 319 319 319 318 318
353 353 352 352 350 349 347 347 346 346 347 346 345 344 342 340 339 341 341 341 343 342 345 341 339 337 342 344 344 346 346 346 345 347 349 348 347 349 350 351 349 349 348 347 346 346 347 348 347 345 344 344 341 342 345 340 338 335 334 335 335 334 334 334 335 333 331 328 326 326 325 322 322 321 319 320 323 325 324 321 319 318 317 317 318
353 353 351 351 350 348 346 345 347 347 345 343 343 342 340 340 339 338 338 341 340 343 344 344 339 334 340 343 345 344 347 344 345 345 348 348 347 347 348 349 348 348 348 346 348 348 349 348 345 343 341 340 338 340 342 341 333 330 332 333 332 334 334 335 333 333 331 328 326 324 325 322 321 318 319 320 319 322 323 322 321 321 316 315 317
351 351 350 350 351 350 347 346 346 347 346 344 343 344 343 340 339 338 339 339 340 340 340 343 341 335 338 342 345 345 345 346 346 347 349 348 348 345 346 349 348 347 348 349 348 347 347 344 343 343 342 340 339 339 340 338 331 327 325 326 328 330 332 333 332 330 331 328 327 327 326 322 320 320 320 317 318 316 316 319 321 319 317 314 312
350 349 352 352 352 350 348 348 347 347 347 346 344 342 343 344 342 342 340 341 343 344 342 343 345 337 339 343 346 346 345 344 346 344 348 348 348 346 345 348 349 348 347 346 347 346 346 344 342 339 337 338 341 342 339 338 330 331 331 327 323 322 326 328 332 331 329 328 327 325 324 321 319 318 319 317 316 315 315 316 316 316 318 318 316
349 350 350 350 350 349 349 349 347 348 347 347 346 347 346 347 346 345 345 344 342 344 346 345 345 341 339 343 345 346 345 344 345 345 345 347 348 347 346 347 349 348 345 344 346 346 347 344 343 342 339 335 333 337 341 339 336 332 323 325 324 323 319 323 326 328 330 327 326 325 324 322 319 318 318 315 314 315 316 315 315 316 318 317 317
348 347 349 350 350 349 349 349 349 348 347 348 348 347 345 345 344 345 344 345 345 343 342 342 343 343 340 342 342 346 345 343 345 344 343 346 347 347 347 347 349 347 346 346 347 346 346 343 343 341 339 336 334 336 340 340 338 337 332 325 322 320 320 323 325 326 328 326 325 325 324 322 320 317 316 315 315 315 315 314 317 317 318 317 317
349 349 350 351 350 349 349 349 349 348 348 349 349 347 344 342 342 339 337 339 339 339 338 340 342 341 338 342 342 343 344 344 344 344 343 344 346 347 347 346 349 347 346 346 347 347 346 344 343 341 339 339 338 334 336 340 340 337 336 334 333 327 326 323 323 318 326 328 326 323 323 323 322 318 317 316 314 314 315 315 317 317 317 317 316
350 351 351 351 352 350 349 349 350 349 349 349 349 348 346 344 343 341 340 340 339 341 343 345 344 343 342 342 339 343 343 343 344 344 344 345 345 347 347 347 346 346 346 346 345 347 345 344 343 341 339 338 338 334 335 335 338 338 336 336 335 335 332 325 320 323 317 322 324 323 322 322 323 319 317 316 315 316 316 315 315 315 316 316 317
352 351 351 351 351 350 350 349 350 350 350 349 347 348 346 345 344 342 342 340 341 342 344 345 347 347 343 341 342 342 345 345 345 344 346 345 345 346 347 346 345 347 345 344 346 348 345 345 344 343 341 340 339 336 336 336 334 333 336 335 335 335 334 332 331 326 323 318 318 322 323 324 323 321 319 317 316 316 317 316 314 314 315 315 316
350 350 350 351 351 350 348 349 349 350 350 350 348 347 349 347 345 344 342 341 343 343 344 345 344 346 345 342 342 343 344 346 345 345 345 345 345 345 346 346 346 346 345 345 346 346 346 344 343 343 341 340 340 339 338 335 336 334 334 334 333 331 330 330 330 330 324 322 320 318 318 322 323 321 322 320 319 317 316 316 314 315 316 318 317
351 351 350 350 350 350 348 347 346 348 350 350 349 348 349 348 346 345 344 343 343 343 344 343 344 346 344 344 344 343 343 344 345 344 344 345 345 346 345 344 346 346 344 345 346 346 346 345 344 343 342 340 338 339 338 338 337 337 335 333 328 328 327 327 327 325 326 326 320 318 319 317 315 319 322 319 319 317 317 317 315 314 315 316 316
352 353 350 350 350 348 348 346 346 347 349 349 349 349 349 349 347 346 346 344 344 344 343 343 342 344 343 344 344 344 344 343 345 345 344 345 347 347 345 344 346 346 345 344 345 344 344 346 344 343 341 339 341 341 339 338 337 335 334 332 331 328 326 325 325 325 324 322 321 321 322 320 318 319 320 320 320 318 316 317 314 314 316 316 316
Wind_Speed
15 18 18 20 18 18 18 17 16 15 15 14 14 12 13 13 14 14 14 13 13 12 12 12 12 12 12 11 12 11 11 11 12 11 10 13 13 14 14 14 14 13 13 13 13 13 12 12 12 11 11 11 10 10 10 10 10 11 11 11 11 11 11 11 11 12 11 11 13 13 13 13 13 12 13 12 13 15 16 16 13 13 12 13 14
18 18 17 18 19 18 18 18 17 15 15 15 15 14 14 14 14 14 14 14 14 13 13 12 12 12 12 11 12 12 11 11 11 10 9 11 13 13 13 14 13 13 13 13 13 12 12 11 11 10 10 10 10 10 9 9 9 10 10 10 10 10 10 10 9 9 10 10 9 11 13 14 13 13 13 14 14 15 16 17 17 11 10 14 15
18 18 17 19 20 19 18 19 17 16 16 16 16 15 14 13 13 14 13 14 13 13 13 12 12 12 12 12 12 12 12 11 11 10 9 11 12 13 13 13 13 13 13 13 12 11 11 10 10 10 10 9 9 9 9 8 8 8 8 8 9 9 9 8 7 7 7 8 9 11 14 14 13 12 13 13 13 14 15 16 15 14 11 15 15
19 16 17 19 20 18 19 19 18 17 17 15 16 15 14 14 14 14 13 12 12 13 13 13 12 12 12 11 12 12 12 12 12 11 10 10 13 13 12 13 13 13 13 13 12 11 10 10 9 9 8 8 7 7 7 7 7 6 6 7 6 7 8 6 4 3 3 4 8 9 7 10 11 13 12 13 13 13 14 14 15 14 12 13 16
19 17 18 17 18 17 17 18 18 17 17 16 17 15 15 14 14 14 13 13 12 12 13 13 13 12 11 11 12 12 12 12 12 12 10 9 11 12 12 12 13 13 13 12 12 11 10 9 9 8 7 7 7 6 5 5 5 4 5 5 5 6 6 4 1 2 4 6 9 9 6 10 10 12 12 12 12 13 13 13 13 11 11 14 15
18 17 17 16 17 17 17 17 18 18 17 17 17 16 16 16 15 14 13 13 13 11 11 14 13 12 11 11 12 12 11 12 12 13 10 8 12 12 12 12 13 12 12 12 12 11 10 8 8 7 7 6 6 5 5 4 4 4 3 4 4 5 5 3 1 4 5 6 8 7 8 10 9 9 12 11 11 11 12 11 11 12 10 9 12
20 16 16 17 15 17 18 17 18 18 17 17 16 16 16 16 15 14 13 13 12 11 10 11 14 13 12 11 11 12 11 12 12 13 11 9 12 12 12 12 12 12 12 12 11 10 9 7 7 6 6 6 6 5 4 3 3 3 3 3 4 3 3 3 4 5 7 6 2 4 7 11 10 8 11 11 11 10 10 10 11 11 12 12 12
16 15 16 16 15 19 18 17 18 18 18 17 16 15 16 16 16 14 13 12 12 10 10 10 11 12 11 12 11 12 12 13 12 13 12 10 9 11 12 12 12 11 12 11 10 10 8 7 6 6 6 6 6 5 3 2 2 3 4 4 4 4 4 4 5 6 8 5 5 5 6 9 11 8 10 10 10 9 8 10 10 10 11 12 12
16 17 16 16 17 23 18 18 18 19 18 17 16 16 15 15 15 14 13 12 11 11 11 11 11 12 12 11 11 12 12 13 11 13 13 11 9 10 10 11 11 11 10 10 9 9 7 6 6 6 6 6 5 5 4 1 2 4 5 5 5 6 5 8 7 6 6 4 7 6 7 9 10 9 9 10 10 10 10 6 9 11 12 12 12
16 15 14 13 17 21 19 18 17 19 19 17 16 15 15 14 14 14 14 12 11 11 11 11 12 12 12 11 12 12 12 13 12 12 12 11 11 10 10 10 11 11 10 10 10 8 6 6 6 6 6 6 5 4 4 2 2 4 6 6 6 7 8 6 7 7 4 3 9 9 8 9 10 10 10 10 10 11 11 13 11 11 11 12 12
16 14 13 14 20 20 19 18 18 19 19 17 17 15 15 15 15 14 13 13 12 12 12 12 12 12 12 12 11 13 12 13 12 11 11 12 11 11 11 10 9 10 10 10 9 7 6 5 6 6 5 5 5 4 2 2 1 4 6 7 7 8 8 7 5 2 5 1 5 8 9 14 9 9 10 10 10 10 11 11 12 12 12 12 12
16 14 13 13 18 19 19 18 18 18 18 18 17 16 15 15 15 14 13 13 12 12 12 12 13 11 11 11 11 12 11 11 12 11 11 12 12 12 11 9 8 8 9 9 9 7 5 5 6 5 5 5 5 4 3 1 3 5 6 7 7 8 8 7 4 2 5 6 7 7 9 11 11 10 11 10 10 10 11 11 12 12 12 13 13
16 14 13 17 17 18 18 17 17 19 18 18 17 16 15 15 15 14 14 13 13 12 12 12 12 11 11 11 11 9 8 10 11 11 11 13 13 13 11 10 8 8 8 8 7 5 5 6 6 5 5 5 5 4 4 4 4 5 6 7 8 7 8 10 5 2 8 5 7 7 10 9 10 12 10 10 10 10 11 12 12 12 12 13 13
15 14 15 15 15 18 18 17 16 18 17 17 17 15 15 14 14 14 13 13 12 12 11 11 12 12 12 11 10 9 8 10 10 10 12 13 13 12 11 10 8 8 9 8 7 5 5 5 6 5 5 5 5 4 4 5 5 5 6 6 7 8 8 7 7 5 4 6 7 8 10 8 9 11 10 10 10 11 11 11 12 13 13 13 13
15 16 16 15 16 16 18 17 16 16 15 16 15 14 14 14 14 13 14 13 12 12 12 10 11 13 12 11 11 10 10 11 9 11 13 13 12 12 11 10 8 8 8 8 6 5 5 5 5 5 5 5 4 4 5 6 5 4 4 5 5 7 5 4 5 7 1 6 6 9 10 8 10 11 10 10 10 11 12 13 13 13 13 13 13
15 16 16 15 16 15 14 16 16 15 15 15 15 14 13 14 14 14 14 13 13 13 12 12 11 12 11 9 10 11 11 13 11 13 13 12 12 12 11 10 9 8 8 7 6 6 5 4 4 5 5 5 5 5 5 6 5 4 3 2 4 5 8 7 3 7 1 4 8 8 9 9 10 10 11 11 12 12 13 13 13 13 13 13 13
14 15 15 16 17 15 13 14 15 16 14 15 14 13 13 14 14 14 13 13 13 13 13 12 11 11 11 10 11 11 14 16 13 14 14 13 12 11 11 10 9 8 8 6 6 5 4 4 4 4 5 5 5 5 6 6 4 4 3 1 3 6 9 6 6 8 10 11 7 5 7 7 10 11 12 12 13 13 13 13 14 13 13 13 13
14 14 15 16 15 15 13 13 14 14 14 14 14 13 13 13 14 14 13 13 13 13 13 13 12 12 11 11 11 11 13 17 16 15 15 13 12 11 11 10 9 8 8 6 6 5 4 4 3 4 4 5 5 6 5 5 4 3 2 1 4 8 9 11 5 5 8 5 4 8 8 9 11 12 12 13 13 13 13 13 13 13 13 13 13
12 13 15 16 14 14 14 13 13 14 14 12 11 12 14 14 14 14 14 14 13 13 13 13 13 12 11 11 11 12 13 14 16 15 14 14 12 11 11 10 9 9 7 6 6 5 4 4 3 3 4 4 5 6 6 5 4 4 2 1 5 6 8 10 5 5 4 6 4 8 8 11 12 13 13 14 13 13 13 13 13 13 12 13 14
11 11 13 15 15 14 13 12 12 14 13 13 13 13 14 15 15 15 15 14 14 13 13 13 13 12 12 12 11 11 12 12 14 13 14 14 13 11 12 10 9 9 8 6 5 5 4 4 3 3 4 4 5 6 6 5 4 4 3 4 7 4 3 6 6 4 4 4 8 7 10 12 13 13 13 14 14 13 13 13 12 12 13 13 14
9 11 12 12 15 16 15 13 14 14 14 13 12 13 13 15 14 15 15 16 15 14 13 13 13 12 12 12 11 10 10 9 10 11 13 11 12 11 12 12 10 9 8 6 5 5 4 4 3 3 3 6 6 6 6 6 5 4 5 7 7 2 6 6 7 1 4 7 8 8 11 11 12 13 13 13 13 14 13 13 13 12 12 12 12
11 11 13 14 13 14 15 15 13 15 13 11 11 11 12 14 13 12 12 13 14 14 12 10 11 10 11 10 10 10 9 9 9 11 10 11 11 12 12 11 11 9 8 7 5 5 5 4 4 4 5 6 9 7 6 6 6 5 6 8 4 2 9 5 3 3 5 6 8 9 11 11 12 12 12 12 13 14 13 12 12 12 12 12 12
12 11 11 15 13 13 14 15 14 15 14 13 11 12 14 11 13 13 11 13 13 13 11 11 10 9 9 10 9 8 9 9 8 10 9 12 11 13 12 11 10 10 9 7 6 6 6 5 6 6 7 9 9 7 6 6 6 8 8 6 5 5 4 4 6 4 4 7 8 11 11 11 11 11 11 12 13 14 13 12 12 12 12 11 12
13 12 12 12 13 12 14 14 15 16 14 11 11 11 12 11 11 11 11 11 12 11 11 11 10 10 10 8 9 9 9 7 11 16 11 10 10 14 13 11 10 9 9 7 7 7 6 7 7 7 8 7 8 8 6 6 6 6 6 5 3 8 5 4 4 4 6 7 8 11 10 10 11 11 11 13 13 12 13 12 13 13 12 12 12
11 12 11 11 14 13 12 13 14 15 13 11 11 11 11 11 11 11 11 11 11 10 9 10 9 10 10 8 9 8 9 8 8 8 8 9 10 9 10 9 8 9 11 8 8 8 8 8 7 7 8 9 9 9 5 4 4 6 6 5 2 7 5 5 4 5 6 7 8 10 10 9 9 11 13 13 12 12 12 12 13 13 12 12 12
12 11 12 12 12 14 13 12 13 14 13 12 10 11 10 10 10 11 10 10 11 11 9 9 9 9 9 9 8 8 8 7 9 9 9 8 9 8 9 9 9 9 10 8 8 8 9 9 9 9 9 9 8 6 5 5 6 6 3 2 2 3 7 3 4 4 5 6 8 10 9 9 10 11 14 12 12 12 13 13 13 12 12 11 12
11 11 13 12 13 12 14 13 13 12 14 12 10 11 10 9 10 10 10 9 9 9 9 8 8 9 9 9 8 8 8 8 9 9 10 9 10 10 10 9 9 9 9 9 9 9 9 9 8 9 9 9 7 5 5 4 5 5 4 3 2 3 10 3 3 3 7 6 8 11 10 10 11 12 13 12 12 12 13 13 12 12 12 11 11
12 12 12 12 12 15 13 14 13 12 11 12 11 11 10 10 10 10 9 9 10 9 7 7 7 8 9 8 8 7 8 8 8 9 9 8 8 8 9 9 8 8 9 9 8 8 8 8 7 7 7 7 7 6 5 6 4 5 3 2 3 4 5 9 3 1 5 7 8 11 12 12 12 12 11 11 11 12 12 12 12 12 11 11 11
12 12 11 13 15 13 16 15 13 14 11 12 11 10 10 9 9 9 8 8 9 8 8 8 8 7 8 9 8 8 8 8 9 9 8 8 7 7 7 7 7 7 8 8 7 7 8 7 6 7 6 7 6 5 5 6 5 5 2 3 5 2 3 9 7 2 4 6 7 9 11 11 10 10 10 11 11 12 12 12 11 11 11 11 11
11 12 12 11 14 15 16 17 15 13 12 12 10 10 10 10 10 10 9 9 8 7 8 7 7 8 8 9 9 9 8 8 8 8 8 8 7 7 6 6 7 7 6 8 7 7 7 6 7 7 8 8 6 6 5 5 6 2 3 4 6 3 3 2 8 5 7 8 8 8 10 9 10 10 10 11 12 11 11 11 11 11 11 11 11
12 13 12 12 12 14 15 15 14 13 12 13 9 10 9 9 10 9 9 8 8 7 8 7 7 7 9 9 10 9 8 8 8 8 7 7 7 7 7 6 7 6 6 7 6 5 6 7 7 6 7 7 6 5 6 5 4 2 3 9 7 1 1 2 3 7 7 7 8 8 9 9 9 9 9 10 11 11 11 11 11 11 10 10 10
13 13 11 12 13 15 14 15 14 11 12 12 11 10 10 10 10 9 9 9 8 8 8 7 7 7 9 10 9 8 8 8 8 7 7 7 7 7 7 6 7 6 7 6 5 6 6 6 7 6 6 6 5 3 5 2 8 6 4 7 3 1 1 4 9 7 7 7 7 8 9 10 9 8 8 9 9 10 10 10 10 10 10 9 9
11 12 12 13 15 13 13 13 15 14 13 13 11 10 10 10 10 10 9 9 9 8 8 8 7 8 8 10 9 9 8 7 7 8 7 7 7 7 7 7 6 6 6 6 6 6 5 5 5 4 5 5 4 4 4 6 5 3 4 3 5 3 5 3 2 4 4 6 7 8 9 11 11 9 8 8 9 9 9 9 9 9 9 8 8
11 11 13 14 12 10 10 9 12 15 14 12 12 11 10 10 10 9 9 10 9 8 8 8 8 7 8 10 10 9 9 7 7 8 7 7 7 7 7 7 6 6 5 5 5 5 5 5 5 6 6 5 5 3 4 2 4 3 3 3 4 5 6 5 4 3 4 3 4 11 11 9 11 9 7 8 8 8 9 8 8 8 7 7 6
10 12 15 15 14 12 10 10 11 15 13 12 12 11 10 10 10 10 9 9 9 9 8 8 8 8 9 9 10 9 9 8 8 7 7 7 7 7 7 7 6 6 6 6 6 6 5 6 6 6 6 5 2 10 1 2 3 5 5 5 7 9 5 5 4 4 4 3 3 6 5 5 4 6 7 7 8 9 8 8 8 7 6 6 5
14 14 14 14 15 14 13 13 13 14 13 13 12 10 11 10 9 9 10 11 10 10 8 8 8 8 8 9 10 10 9 9 9 8 7 7 7 7 7 6 7 6 6 6 6 6 6 5 6 6 3 4 5 6 3 3 3 5 7 7 5 4 5 4 4 3 3 3 5 4 2 2 3 6 6 6 6 7 8 8 8 7 6 4 4
14 15 15 15 14 14 14 14 16 16 14 13 12 11 11 11 11 10 10 11 9 10 8 8 8 8 9 9 10 10 9 9 9 8 7 7 7 7 7 7 6 6 6 6 6 6 6 6 5 5 3 3 8 6 3 2 1 5 5 5 5 4 4 4 2 3 4 5 3 4 3 4 4 6 4 6 6 6 8 7 7 6 5 3 2
13 15 16 16 16 15 13 12 13 15 14 14 13 12 12 11 11 10 10 11 11 9 9 8 8 8 9 9 11 10 9 10 10 9 7 8 7 7 6 7 7 6 6 6 6 6 6 5 5 6 5 4 5 8 7 4 5 2 4 5 5 3 3 3 2 3 1 4 2 3 4 4 3 4 4 5 7 7 7 7 7 6 6 5 2
12 14 15 15 15 14 12 13 15 15 14 14 14 13 12 11 11 11 11 11 11 10 9 9 8 8 9 10 12 10 9 11 10 10 8 8 8 7 6 8 7 6 6 6 6 7 5 5 7 6 5 6 9 7 6 6 4 3 5 5 4 3 3 3 3 3 2 2 3 3 4 4 4 4 4 4 6 7 7 7 7 7 7 7 6
13 13 15 15 15 16 14 13 14 14 13 12 13 12 12 12 12 11 11 11 11 10 9 9 8 9 10 10 11 10 10 10 11 10 9 8 8 7 7 7 7 6 6 6 7 6 7 7 5 6 6 4 8 5 4 4 6 6 5 5 2 3 3 2 2 3 3 4 3 2 3 4 3 4 5 5 4 6 7 7 7 7 7 9 8
15 15 15 16 16 16 15 16 14 15 14 14 13 13 13 13 12 12 12 11 12 11 10 9 9 9 10 11 11 10 10 11 11 11 9 8 8 7 7 7 7 7 7 7 7 6 7 5 4 5 7 6 8 5 5 4 8 5 3 4 4 4 4 3 2 3 4 4 4 4 3 3 4 4 5 3 5 5 5 6 6 6 7 7 8
13 15 17 17 16 16 16 15 14 14 15 16 14 12 12 13 12 12 12 12 12 11 11 10 9 9 10 11 10 11 11 11 10 10 9 8 8 7 8 7 7 7 7 6 7 7 7 6 4 6 7 6 5 9 7 7 7 7 8 7 5 4 4 3 3 4 4 4 5 4 4 4 5 5 4 4 4 5 6 5 5 4 5 8 8
15 15 15 16 16 16 16 16 14 16 15 15 14 14 13 12 11 11 12 10 11 10 10 11 9 9 10 11 11 11 11 11 11 10 9 9 8 8 8 7 8 7 6 7 7 8 7 8 9 7 6 6 5 6 9 10 7 8 8 7 6 5 5 5 7 8 7 6 4 5 5 6 7 6 5 5 5 5 6 6 5 4 2 2 4
13 14 16 17 15 14 14 14 15 16 16 16 16 15 14 13 12 10 11 10 10 10 10 11 12 11 11 12 11 11 12 11 12 11 10 9 9 9 8 8 7 7 7 7 7 7 7 7 7 7 7 6 7 7 8 9 5 8 7 6 5 5 5 8 8 7 6 8 7 6 6 6 6 7 5 6 6 5 5 6 6 5 3 4 3
14 15 16 16 13 17 17 16 15 15 15 16 16 15 13 12 11 11 12 11 10 11 10 10 11 11 11 12 12 12 12 11 12 12 10 10 10 9 8 8 8 8 7 7 6 7 8 8 8 7 8 6 7 6 7 8 7 7 4 5 4 5 5 4 8 6 7 8 9 7 6 7 6 7 6 6 6 6 5 6 5 5 5 4 3
17 17 17 17 16 16 17 17 15 15 17 19 18 14 13 13 13 13 14 13 12 13 13 12 11 11 12 10 12 13 13 12 12 12 12 10 10 10 9 9 9 8 8 7 6 7 8 8 8 8 9 8 6 6 7 7 7 7 6 5 3 2 1 6 6 5 7 7 7 9 8 8 7 7 7 7 7 6 6 5 7 5 5 5 5
16 16 16 16 17 16 16 16 14 13 15 17 18 13 14 14 16 15 14 13 12 11 10 10 10 12 11 12 12 12 13 13 12 12 12 11 10 10 10 10 9 8 8 7 7 7 7 8 7 8 8 7 6 6 6 7 6 7 6 6 5 5 3 3 5 3 6 6 6 7 7 8 7 8 8 8 8 6 5 6 7 7 7 6 5
15 16 15 15 16 15 14 15 11 10 12 14 17 13 14 14 16 15 14 13 12 11 12 11 10 10 12 13 12 11 13 13 12 12 12 11 10 10 10 10 9 9 8 8 7 7 7 8 8 8 7 7 7 4 7 6 7 6 7 7 6 6 5 5 7 6 4 4 7 6 7 7 8 7 7 8 8 7 7 6 6 7 6 7 6
15 16 15 15 15 14 15 16 16 15 15 19 16 15 13 14 14 14 13 13 13 11 11 11 11 11 13 12 12 12 12 13 12 12 12 12 11 10 11 11 10 9 8 8 8 8 9 8 8 7 7 6 5 5 5 6 7 6 7 6 6 6 7 7 7 7 6 6 7 8 7 7 6 7 7 7 7 6 8 7 7 7 6 6 6
16 16 16 15 15 14 14 14 15 14 16 18 16 17 16 13 14 14 15 13 13 12 12 12 12 12 13 11 11 11 12 11 12 14 14 13 13 11 11 12 11 9 8 9 9 9 9 9 9 9 8 7 6 6 6 5 5 5 6 6 7 7 6 7 7 7 7 7 8 5 9 10 10 9 9 9 8 7 7 7 7 8 7 6 6
12 14 16 17 16 17 17 19 19 16 17 17 18 18 17 16 15 16 16 15 15 14 13 14 13 13 14 14 12 11 10 11 11 11 14 12 13 12 10 11 10 9 9 9 8 9 9 9 8 9 9 9 6 6 7 7 6 7 8 7 7 7 7 7 7 7 7 6 7 7 7 10 11 10 10 9 8 8 7 7 8 8 6 6 6
Wind_Direction
147 134 138 138 143 144 142 138 141 144 143 141 140 139 138 133 129 132 128 126 126 122 123 127 125 121 120 121 120 116 117 116 111 112 115 114 110 105 108 111 108 108 110 106 107 105 103 101 99 92 90 87 83 79 76 76 77 75 73 75 75 76 71 67 68 68 70 77 86 89 81 75 70 63 59 53 48 38 38 34 71 67 60 61 58
144 135 139 142 141 143 143 139 142 146 146 142 139 140 141 134 132 131 130 132 128 131 131 130 129 124 125 127 125 123 120 115 113 113 119 120 115 113 110 110 111 109 109 110 107 107 104 101 100 97 92 90 87 82 81 78 77 78 76 76 76 77 75 77 78 80 82 81 87 89 86 81 74 68 62 54 49 47 43 45 44 61 65 63 59
135 134 141 142 143 143 143 140 144 147 147 143 138 141 139 135 132 132 133 135 134 132 133 131 130 130 128 134 131 129 124 121 121 120 121 124 122 115 113 113 115 114 113 115 112 107 104 103 100 99 92 89 87 86 84 81 78 77 77 77 80 83 83 80 86 92 97 102 93 102 100 89 82 75 70 66 62 58 59 56 56 62 62 56 58
134 136 143 141 142 144 143 140 144 149 147 143 141 140 140 137 135 134 132 134 135 136 136 134 133 133 134 137 137 130 129 129 127 126 129 134 121 119 119 117 119 120 121 119 116 110 108 104 100 94 93 87 87 85 84 86 84 81 78 79 84 81 83 84 83 95 92 141 145 150 107 104 90 77 74 70 67 64 65 65 63 67 76 70 56
135 139 141 147 147 144 143 141 144 150 149 144 141 142 139 136 134 136 135 137 138 140 142 139 135 136 138 139 134 128 129 132 131 129 131 132 126 120 124 125 122 124 126 122 118 113 112 108 97 94 94 90 85 87 86 93 98 93 96 89 83 91 87 82 99 216 206 163 212 211 75 92 89 78 74 72 68 67 67 67 65 71 72 72 65
137 137 143 150 152 147 145 144 145 149 149 144 141 145 141 137 134 135 138 140 145 136 150 145 141 140 141 142 136 131 134 137 133 127 131 120 118 124 131 130 127 126 124 126 120 117 112 105 101 97 94 92 83 83 86 88 111 118 124 122 95 93 98 115 248 275 255 243 246 238 85 87 92 85 73 71 68 67 68 66 57 61 74 81 79
136 137 146 151 153 150 147 146 145 149 148 144 145 145 142 137 135 136 136 140 145 146 139 152 150 146 145 142 140 132 137 138 136 131 131 130 132 138 134 131 130 129 131 126 125 119 113 105 104 98 88 84 82 74 76 89 108 144 144 163 143 116 134 179 217 240 257 276 189 93 73 79 87 86 76 70 67 66 68 65 57 55 46 34 50
135 142 149 150 154 146 148 146 146 148 148 143 144 146 141 136 135 134 136 136 136 140 145 147 153 154 150 147 149 137 140 140 144 135 135 143 146 134 135 135 135 134 131 130 129 124 115 110 103 95 84 76 74 72 67 90 128 147 176 172 182 159 205 213 227 249 262 264 73 92 77 80 81 86 77 71 62 54 50 67 81 63 45 35 43
139 145 150 148 142 146 147 147 148 150 148 144 144 147 142 135 133 134 135 134 134 138 150 152 154 155 151 153 154 140 139 144 146 138 141 153 144 137 138 138 138 135 132 132 134 123 105 109 98 89 80 67 62 63 60 57 144 166 174 186 187 200 206 234 239 250 256 260 73 70 80 94 88 87 74 67 62 58 55 97 109 80 65 49 51
140 143 139 136 141 146 147 146 150 150 146 145 146 147 143 138 135 136 136 136 135 138 146 153 153 152 150 158 158 140 138 145 142 143 146 144 142 137 129 131 139 138 135 136 119 105 113 106 98 83 73 67 60 51 54 62 197 180 182 185 191 209 223 236 254 276 303 330 78 68 51 49 81 77 78 72 63 56 57 53 55 50 53 56 57
134 136 138 143 144 144 145 147 148 150 145 146 148 149 146 142 138 137 138 137 137 139 145 152 154 156 154 158 158 139 137 147 146 148 145 143 141 128 130 135 134 142 142 138 135 127 123 113 93 81 68 62 60 53 37 65 165 182 182 179 194 207 224 235 259 292 297 227 95 111 98 83 76 82 81 72 69 65 65 63 61 61 60 59 59
139 139 139 133 135 143 144 146 149 148 146 148 149 150 148 144 139 139 140 139 138 140 144 151 153 148 153 151 157 151 136 149 151 150 144 143 135 131 118 121 127 131 139 140 142 131 123 104 93 80 64 57 53 48 48 91 114 159 171 181 191 208 223 238 244 299 255 77 70 64 67 80 87 90 82 77 73 71 65 64 65 63 61 61 61
136 137 125 125 146 143 144 147 148 149 148 148 150 151 149 146 142 142 141 141 141 141 145 149 152 149 153 154 154 141 151 156 158 149 147 145 142 131 133 131 135 139 140 132 126 126 120 104 97 85 68 52 46 47 67 99 128 136 162 176 203 205 218 231 222 128 266 86 94 85 88 82 85 87 84 82 82 79 76 72 70 68 66 65 65
136 133 131 138 147 145 144 146 148 150 149 151 150 150 151 148 146 145 142 143 144 144 146 148 153 152 154 154 147 153 157 161 157 149 149 148 141 137 132 133 137 141 135 132 134 132 123 107 98 85 70 58 51 61 87 110 122 142 152 176 206 221 222 243 265 347 244 103 84 88 76 80 85 88 85 85 87 86 82 79 77 75 73 71 67
136 135 141 143 141 152 144 146 149 149 149 149 151 153 152 151 149 146 145 146 147 149 148 148 150 151 148 151 157 160 160 158 160 149 147 140 140 139 134 130 132 136 137 138 137 128 115 102 90 83 78 70 73 88 109 116 127 141 154 184 223 243 251 284 301 253 210 87 92 78 87 87 93 92 91 96 93 89 88 86 83 79 75 71 68
133 134 136 139 147 149 151 146 146 146 148 149 154 156 153 150 151 149 146 147 150 152 150 151 153 149 148 153 162 158 155 153 157 143 137 142 143 142 137 135 135 141 143 139 134 127 112 101 92 84 85 87 94 108 124 128 129 143 160 201 251 270 280 273 351 284 73 51 66 70 80 86 93 95 99 101 99 96 95 91 86 80 75 72 69
131 134 135 141 147 150 152 154 153 143 147 151 155 156 152 151 153 151 150 149 152 154 153 153 151 150 149 152 161 156 150 148 145 145 146 145 146 144 141 136 139 144 147 143 128 124 115 107 97 85 89 97 108 113 122 129 135 135 148 251 294 283 264 294 3 313 46 32 32 90 93 96 96 100 103 103 105 102 99 95 86 81 75 72 70
135 136 138 143 147 151 154 159 153 159 154 152 158 156 153 149 152 151 151 152 153 155 155 153 153 156 151 153 154 144 150 145 146 151 151 150 149 147 142 142 146 147 150 143 131 123 126 110 105 100 96 105 114 116 117 127 121 122 136 295 309 287 308 15 39 336 62 76 85 78 85 95 108 105 107 108 106 105 99 92 88 81 76 75 75
139 145 142 145 149 153 157 159 160 165 161 161 163 160 158 152 152 154 155 153 156 156 154 152 152 154 157 156 157 149 155 153 152 157 155 153 154 147 147 146 149 154 150 143 137 128 133 129 114 114 111 109 115 123 122 121 140 143 164 216 266 277 325 43 11 350 56 68 48 70 88 99 103 109 108 107 108 102 95 90 87 82 79 79 81
144 147 140 148 152 156 154 158 164 170 164 166 164 163 160 162 159 157 158 155 157 158 155 150 149 154 160 163 163 162 159 159 160 160 159 161 157 166 149 148 157 156 155 150 147 144 140 150 132 126 125 127 128 130 135 139 154 173 172 211 248 293 22 75 2 313 79 82 77 87 96 103 106 110 110 109 107 100 95 90 85 85 80 78 75
150 153 149 151 156 157 159 160 166 169 171 167 162 163 160 161 163 161 162 162 158 161 158 152 148 151 161 168 170 185 172 165 168 172 162 167 174 153 155 152 160 166 161 157 160 155 156 161 167 149 157 149 153 151 147 160 176 188 189 224 234 271 53 63 205 182 70 80 84 93 97 102 106 110 111 110 106 101 98 94 90 88 84 80 75
157 158 157 156 160 164 164 161 164 169 170 171 166 164 159 167 174 166 171 167 165 164 166 169 166 159 166 164 183 188 188 180 186 174 179 170 165 159 160 160 159 169 169 168 164 171 175 184 190 192 183 185 172 178 168 174 198 199 209 231 230 184 69 218 136 76 73 88 94 101 105 104 111 111 112 110 105 102 97 92 91 87 85 80 77
162 161 161 164 166 166 168 162 167 169 166 174 170 161 162 174 175 171 173 173 168 176 176 181 175 170 173 176 185 195 195 182 186 180 198 173 163 166 164 165 162 167 176 177 184 181 188 206 214 208 202 206 204 209 185 177 192 202 230 230 237 101 171 169 81 83 90 96 101 107 111 113 114 115 112 109 105 99 95 93 89 87 84 83 81
162 163 161 169 165 166 167 169 167 167 173 172 167 165 166 177 175 175 174 176 175 182 182 187 180 177 171 176 186 187 196 193 184 183 194 173 157 171 169 171 172 172 178 189 188 195 201 214 220 221 219 216 219 224 193 186 182 186 198 222 255 103 99 83 84 85 91 96 101 106 111 115 114 114 112 109 106 103 98 95 93 90 88 89 88
161 155 159 169 171 162 173 172 165 165 178 170 170 172 168 174 181 179 175 177 177 186 181 190 191 179 169 177 187 179 197 186 182 183 200 179 175 182 180 187 191 195 180 209 193 182 200 195 197 213 215 216 226 233 202 193 187 194 212 219 161 118 147 89 57 75 89 89 105 110 111 114 117 114 116 109 108 104 101 99 98 95 94 91 90
158 163 162 168 176 157 171 176 158 164 180 170 176 167 173 178 178 182 177 178 182 181 184 195 187 184 176 183 184 181 198 189 178 183 193 175 182 188 191 194 199 197 183 215 199 193 198 208 199 199 221 221 229 232 231 192 207 224 201 157 173 116 97 83 104 100 94 106 111 114 115 115 118 120 114 111 109 107 103 102 100 99 96 94 90
165 168 166 168 168 170 173 175 164 169 181 174 173 170 179 180 180 183 180 180 176 181 192 188 187 187 184 182 187 182 193 193 179 192 190 179 187 189 193 198 194 200 180 210 205 196 200 216 204 202 219 227 226 231 225 235 252 229 210 157 183 107 110 94 92 103 116 121 110 110 113 113 115 119 114 112 108 106 105 105 103 102 101 97 93
171 171 170 164 167 168 179 176 169 171 180 173 181 175 176 188 178 178 189 175 177 185 194 188 178 190 184 188 189 188 193 190 185 187 203 184 198 191 185 197 198 203 176 210 201 204 201 218 219 213 220 233 225 224 216 220 214 258 200 154 129 67 92 116 81 63 112 115 115 106 107 111 114 113 112 108 108 106 110 108 108 106 103 97 92
171 171 168 164 171 174 177 177 170 173 178 180 182 184 175 184 180 180 186 174 182 178 196 179 186 184 192 191 196 193 195 191 184 183 201 183 191 199 192 187 199 204 175 208 205 203 209 217 216 223 220 233 225 205 224 212 216 227 179 172 101 63 70 120 130 182 137 114 106 101 110 111 110 111 112 108 108 111 110 109 106 104 99 95 91
171 168 165 167 167 172 183 179 169 175 177 185 185 184 179 181 181 182 186 175 188 180 197 185 184 181 190 197 194 202 201 192 185 182 185 184 184 192 194 186 202 204 179 204 205 199 206 211 214 217 220 227 223 201 225 218 215 195 194 165 96 92 94 101 125 188 136 123 106 107 97 98 103 108 114 114 112 111 109 108 106 103 99 97 94
166 166 161 162 164 172 181 177 174 171 175 186 188 185 178 188 180 184 181 182 182 189 195 190 179 196 185 195 191 204 205 193 185 183 180 183 177 186 191 185 196 196 188 202 211 198 207 212 216 214 227 222 221 194 214 226 214 181 62 46 52 70 120 138 115 187 131 125 124 118 105 94 97 106 112 115 116 113 111 107 106 102 100 97 95
178 165 164 163 165 174 181 173 166 170 178 187 184 186 183 186 184 191 179 189 178 192 197 190 184 195 184 184 189 200 204 192 182 185 177 178 180 184 192 186 194 185 197 196 193 208 210 216 220 217 241 237 218 197 207 230 47 31 22 82 58 273 236 195 184 171 143 125 130 136 139 119 107 104 109 113 117 114 114 110 108 109 104 102 101
182 172 164 164 165 173 173 179 160 165 183 186 185 188 188 181 181 194 181 186 187 197 197 185 195 195 175 179 186 192 201 190 181 187 179 179 179 184 188 186 192 183 193 192 190 204 220 220 227 243 232 245 220 198 59 57 101 69 28 122 161 149 247 169 144 134 134 139 140 140 132 142 135 126 117 116 116 119 114 116 113 114 114 112 109
173 179 168 164 164 168 174 177 162 165 179 183 186 188 186 183 185 190 185 181 187 200 203 186 197 192 171 179 184 185 195 181 178 188 185 180 175 185 185 186 188 181 181 182 195 201 214 217 210 221 216 226 213 145 62 82 74 76 26 251 171 207 190 175 179 147 135 119 91 147 155 146 143 135 131 124 122 122 126 126 129 119 117 112 115
169 175 175 165 166 170 167 173 176 168 174 187 184 191 182 189 187 189 176 179 191 197 201 189 199 190 171 179 181 180 190 177 181 184 189 179 175 186 186 188 180 177 186 189 203 201 212 213 212 217 207 216 13 48 169 107 105 119 198 240 236 198 154 142 149 175 117 90 194 56 2 18 45 96 133 139 132 132 134 130 124 126 127 132 131
173 174 170 167 166 170 167 173 177 173 179 186 185 189 186 192 192 189 182 183 190 198 197 190 197 190 174 174 179 175 189 177 180 187 191 185 183 188 183 189 175 187 196 189 207 202 213 217 210 220 237 200 100 115 228 118 153 147 216 230 176 156 132 165 190 165 132 163 89 103 101 113 142 136 152 140 145 134 138 141 141 148 152 152 150
174 171 170 166 167 165 173 174 174 172 176 188 190 188 185 195 195 188 188 185 194 201 190 189 196 190 177 175 175 174 190 178 187 191 198 196 198 194 185 181 179 197 196 194 209 212 206 214 220 212 172 220 113 148 174 144 124 198 195 213 147 141 163 156 176 65 71 62 101 129 131 119 99 114 167 146 145 145 149 152 157 156 148 106 120
172 171 171 167 169 166 175 170 171 177 176 186 190 187 190 192 194 192 185 187 200 203 194 184 193 196 179 180 175 175 193 187 195 196 201 202 204 197 182 170 190 196 199 197 212 216 211 203 227 212 199 219 104 168 157 189 200 155 219 169 133 156 152 148 138 116 187 103 143 112 121 114 145 176 182 155 157 149 153 156 157 159 153 165 182
171 173 172 170 167 165 170 177 177 178 176 183 189 188 190 194 194 195 182 192 199 203 203 181 193 196 187 182 174 177 192 193 193 200 201 206 202 199 179 175 193 194 199 206 209 215 212 199 220 214 208 201 119 195 158 174 149 174 167 140 147 132 128 163 159 214 117 127 119 146 137 141 165 171 163 186 154 163 160 169 183 189 172 172 188
166 170 174 174 171 171 177 177 179 179 174 178 185 189 191 192 195 196 185 191 199 200 204 186 188 196 188 188 173 182 188 194 193 202 204 205 204 194 181 179 194 196 197 206 213 206 203 200 216 219 207 189 119 194 164 159 137 147 139 131 144 155 171 178 198 221 149 157 159 176 161 145 170 167 171 195 176 165 175 175 193 192 163 168 175
166 170 177 178 179 175 174 178 179 177 179 180 185 189 189 191 196 196 196 192 198 198 197 197 183 196 188 189 179 184 187 194 196 200 203 204 212 199 188 191 196 199 199 208 214 212 197 193 193 228 210 195 157 155 152 175 136 130 101 149 146 178 176 229 197 218 212 167 169 197 164 159 168 170 188 176 181 175 184 188 207 183 168 157 178
171 174 182 182 179 176 174 175 179 180 183 182 182 190 194 195 193 194 196 192 197 196 188 198 186 189 190 188 185 186 186 193 196 200 202 206 206 201 194 198 199 201 202 208 213 213 201 174 205 240 208 200 176 152 176 162 166 169 165 169 176 183 190 216 221 214 239 197 182 193 161 192 176 183 167 182 188 190 192 193 214 187 185 172 173
172 183 185 181 180 182 180 177 184 184 185 182 179 187 197 200 193 194 194 191 196 195 187 192 180 192 187 188 189 187 187 192 194 200 199 207 208 204 201 197 201 200 201 207 210 209 209 198 203 213 205 200 182 162 176 193 184 168 172 165 177 188 196 226 223 231 198 222 197 187 186 200 191 188 169 199 189 203 193 181 193 186 209 251 178
170 182 189 189 185 185 184 181 184 188 189 188 186 185 194 192 193 192 194 200 189 191 200 184 180 190 187 192 192 189 191 194 193 197 200 202 204 206 202 199 198 204 205 205 203 207 201 207 202 219 216 202 197 181 189 207 205 174 181 199 172 213 206 218 199 211 202 209 205 202 185 210 198 186 173 206 198 201 200 176 182 169 192 214 249
175 181 186 187 188 187 186 184 183 190 190 187 189 184 185 184 185 191 193 202 193 189 195 187 188 189 192 195 197 190 193 194 193 199 200 199 203 208 204 198 200 199 207 208 203 204 203 203 201 214 215 212 200 186 191 206 214 209 219 187 164 212 261 142 180 182 196 207 203 203 186 205 209 188 185 213 206 193 197 186 177 162 198 200 224
174 181 186 185 186 188 183 182 189 190 195 187 187 188 179 179 178 188 191 197 194 189 189 189 184 186 197 192 201 193 194 193 195 198 201 200 200 205 208 206 200 201 207 208 203 200 203 204 201 210 213 216 217 195 195 202 216 219 235 261 26 323 16 139 176 192 186 216 210 195 198 202 214 198 197 210 213 192 193 205 162 185 188 214 216
184 178 182 184 186 186 184 184 185 186 195 192 188 185 178 181 183 188 193 194 198 192 187 190 186 192 193 189 201 194 196 194 198 199 202 202 203 202 202 211 203 201 199 203 205 204 202 206 201 208 211 209 212 211 207 193 204 222 225 240 236 222 244 199 215 157 171 196 231 187 204 199 205 219 204 218 209 202 186 211 174 204 189 210 215
187 178 178 181 183 183 177 179 180 181 192 191 192 185 179 182 187 192 193 194 202 193 185 185 190 190 194 196 192 194 196 195 195 201 200 198 207 202 202 209 213 199 195 200 204 201 205 201 202 206 207 207 203 209 224 201 205 203 211 217 225 232 240 250 281 284 270 218 195 208 196 207 194 215 225 225 215 203 182 207 206 194 207 195 209
198 186 179 175 178 178 177 178 179 181 198 195 189 186 186 187 187 193 195 195 196 199 188 184 189 189 199 197 190 194 195 199 198 202 203 201 205 206 205 207 211 208 194 201 201 199 204 201 197 198 203 205 198 220 232 211 206 217 193 215 221 227 228 232 243 242 253 252 243 186 191 186 215 205 222 238 232 210 184 201 234 218 197 196 208
203 187 179 177 178 178 181 176 179 183 195 194 188 188 192 189 193 194 193 192 191 192 189 186 190 191 198 186 186 197 199 199 205 205 204 203 205 205 206 209 206 209 201 204 197 199 201 202 201 201 202 205 198 209 221 223 216 224 222 206 218 220 233 235 224 234 236 249 267 214 183 191 203 208 200 210 226 221 182 197 219 232 204 187 207
202 185 177 178 178 180 180 182 185 187 192 189 186 191 193 196 198 191 193 194 191 191 186 186 189 191 198 191 190 197 200 196 203 208 206 202 207 207 209 208 207 206 207 205 200 200 200 203 198 199 208 204 197 216 214 224 226 225 219 216 215 215 217 216 224 211 231 233 233 242 227 198 212 203 189 205 207 201 197 198 211 221 220 197 207